Flight Track Log - Related Links

Times and Time Zones

All times are in EDT time to prevent confusion due to time zone crossing. See the EJA381 flight status page for this flight to view local times or setup timezone preferences in your user account.

Time Position Orientation Groundspeed Altitude Reporting Facility
EDT Latitude Longitude Course Direction KTS MPH feet Rate Location/Type
05:05PM 43.5778 -72.3800 228° Southwest 365 420 16,000  Level Boston Center
05:06PM 43.5236 -72.4600 227° Southwest 309 356 15,500 -50 Descending Boston Center
05:07PM 43.4589 -72.5775 233° Southwest 334 384 15,900 200 Climbing Boston Center
05:08PM 43.3858 -72.7031 231° Southwest 389 448 15,900 50 Level Boston Center
05:09PM 43.2252 -72.9623 228° Southwest  Level FlightAware Approximate
05:09PM 43.3167 -72.8281 233° Southwest 416 479 16,000  Level Boston Center
05:10PM 43.2453 -72.9531 232° Southwest 421 484 16,000  Level Boston Center
05:11PM 43.1656 -73.0833 230° Southwest 421 484 16,000  Level Boston Center
05:12PM 43.0961 -73.1878 228° Southwest 421 484 16,000  Level Boston Center
05:13PM 42.9872 -73.2744 210° Southwest 416 479 16,000  Level Boston Center
05:14PM 42.8950 -73.3414 208° Southwest 409 471 16,000  Level Boston Center
05:15PM 42.7858 -73.4247 209° Southwest 409 471 16,000  Level Boston Center
05:16PM 42.6936 -73.4908 208° Southwest 415 478 16,000  Level Boston Center
05:17PM 42.5822 -73.5736 209° Southwest 415 478 16,000 -300 Level Boston Center
05:18PM 42.4942 -73.6367 208° Southwest 415 478 15,400 -1,350 Descending Boston Center
05:19PM 42.3869 -73.7133 208° Southwest 410 472 13,300 -1,818 Descending Boston Center
05:21PM 42.3031 -73.7736 208° Southwest 400 460 11,400 -1,045 Descending Boston Center
05:22PM 42.1858 -73.8158 195° South 353 406 11,000 -1,135 Descending Boston Center
05:24PM 42.0000 -73.8167 180° South 277 319 7,900 -1,589 Descending New York TRACON
05:25PM 41.9333 -73.8167 180° South 269 310 6,100 -1,750 Descending New York TRACON
05:26PM 41.8667 -73.8333 191° South 257 296 4,400 -1,105 Descending New York TRACON
05:27PM 41.8167 -73.8833 217° Southwest 244 281 4,000 -632 Descending New York TRACON
05:28PM 41.7500 -73.9167 200° South 245 282 3,200 -500 Descending New York TRACON
05:29PM 41.7000 -73.9667 217° Southwest 233 268 3,000 -250 Descending New York TRACON
05:30PM 41.6333 -73.9833 191° South 221 254 2,700 -429 Descending New York TRACON
05:31PM 41.5667 -74.0000 191° South 213 245 2,100 -333 Descending New York TRACON
05:32PM 41.5167 -74.0167 194° South 190 219 2,000 -500 Descending New York TRACON
05:33PM 41.5167 -74.0667 270° West 120 138 1,100 -900 Descending New York TRACON

Login

Don't have an account? Register now (free) for customized features, flight alerts, and more!